Content
SEND FEEDBACK

Daily
Averages
Monthly
Summary
Philippines

OLONGAPO, PHILIPPINES


Home > Asia > Philippines
Elevation: 55 feet     Latitude: 14 48N     Longitude: 120 16E

WEATHER
 
SELECT A DAY
Number of Records: 135,020;   Date Range: 7/31/96 - 8/12/14
 
SHARE

PRINT THIS DATA

[ ← Previous Day ]
WEATHER ALMANAC - DECEMBER 7, 2013
[ Next Day → ]
[ °C ]   °F
Weather ElementAverageHighLow
Temperature82 °F89.6 °F (2:00 pm)77 °F (1:00 am)
Dewpoint70.2 °F73.4 °F (1:00 am)64.4 °F (10:00 pm)
Humidity66.4 %89 % (1:00 am)46 % (2:00 pm)
Barometer29.81 in29.86 in (9:00 am)29.77 in (1:00 am)
Wind Speed7.8 mph15 mph (10:00 am)
Weather ElementAverage
Visibility7.4 mi
Wind DirectionENE (60 °)

Weather ElementTotal
Precipitation---
Cooling Degree Days18.3 (Base 65)
Growing Degree Days33.3 (Base 50)
Averaged from 31 records on December 7, 2013
WEATHER CONDITIONS BREAKOUT
WIND DIRECTION BREAKOUT
WEATHER BY HOUR - DECEMBER 7, 2013
[ °C ]   °F
Local TimeTemperatureDewpointHumidityBarometerVisibilityWind DirectionWind SpeedGust SpeedPrecipitationEventsConditions
1:00 AM77.0 °F73.4 °F89 %29.77 in6.2 miENE (70°)3.5 mphPartly Cloudy
2:00 AM77.0 °F73.0 °F85 %29.79 in11.0 miENE (70°)2.2 mphHaze
2:00 AM77.0 °F73.4 °F89 %29.77 in6.2 miVariable1.2 mphPartly Cloudy
3:00 AM77.0 °F71.6 °F83 %29.77 in6.2 miENE (70°)2.3 mphPartly Cloudy
4:00 AM77.0 °F71.6 °F83 %29.77 in6.2 miENE (70°)3.5 mphPartly Cloudy
5:00 AM77.0 °F70.0 °F74 %29.80 in9.0 miNE (50°)4.5 mphHaze
5:00 AM77.0 °F69.8 °F78 %29.80 in6.2 miNE (50°)4.6 mphPartly Cloudy
6:00 AM77.0 °F69.8 °F78 %29.80 in6.2 miNE (40°)5.8 mphMostly Cloudy
7:00 AM78.8 °F69.8 °F74 %29.80 in6.2 miENE (60°)8.1 mphMostly Cloudy
8:00 AM81.0 °F72.0 °F67 %29.85 in12.0 miENE (60°)8.9 mphHaze
8:00 AM80.6 °F71.6 °F74 %29.83 in6.2 miENE (60°)9.2 mphMostly Cloudy
9:00 AM82.4 °F71.6 °F70 %29.86 in6.2 miENE (70°)13.8 mphMostly Cloudy
10:00 AM84.2 °F73.4 °F70 %29.83 in6.2 miENE (60°)15.0 mphMostly Cloudy
11:00 AM77.0 °F70.0 °F74 %29.80 in9.0 miNE (50°)4.5 mphHaze
11:00 AM86.0 °F71.6 °F62 %29.83 in6.2 miENE (60°)12.7 mphMostly Cloudy
12:00 PM87.8 °F73.4 °F62 %29.83 in6.2 miENE (60°)13.8 mphMostly Cloudy
1:00 PM87.8 °F71.6 °F58 %29.80 in6.2 miEast (90°)12.7 mphMostly Cloudy
2:00 PM89.0 °F71.0 °F46 %29.79 in12.0 miENE (70°)8.9 mphHaze
2:00 PM89.6 °F71.6 °F55 %29.77 in6.2 miENE (70°)9.2 mphMostly Cloudy
3:00 PM87.8 °F73.4 °F62 %29.77 in6.2 miEast (80°)10.4 mphMostly Cloudy
4:00 PM87.8 °F69.8 °F55 %29.77 in6.2 miENE (70°)9.2 mphMostly Cloudy
5:00 PM86.0 °F70.0 °F49 %29.80 in12.0 miENE (70°)8.9 mphHaze
5:00 PM86.0 °F69.8 °F58 %29.80 in6.2 miENE (70°)9.2 mphMostly Cloudy
6:00 PM84.2 °F68.0 °F58 %29.83 in6.2 miNE (50°)6.9 mphMostly Cloudy
7:00 PM82.4 °F68.0 °F62 %29.83 in6.2 miNE (50°)8.1 mphMostly Cloudy
8:00 PM82.0 °F67.0 °F51 %29.86 in11.0 miENE (70°)6.7 mphHaze
8:00 PM82.4 °F68.0 °F62 %29.86 in6.2 miENE (70°)6.9 mphMostly Cloudy
9:00 PM80.6 °F66.2 °F61 %29.86 in6.2 miNE (50°)8.1 mphMostly Cloudy
10:00 PM80.6 °F64.4 °F58 %29.86 in6.2 miNE (50°)6.9 mphMostly Cloudy
11:00 PM80.0 °F66.0 °F53 %29.84 in11.0 miNE (50°)8.9 mphHaze
11:00 PM80.6 °F64.4 °F58 %29.83 in6.2 miNE (50°)8.1 mphPartly Cloudy
Hourly data recorded from RPLB, located miles away from Olongapo, Philippines







STORIES FROM OUR PARTNERS